Погода в Екибастузе

Хотите узнать прогноз погоды в Екибастузе? Тогда Вам сюда: Погода в Екибастузе

Поиск расширенной информации на нашем сайте:

Полезная информация:

Новости сайта



02.01.2020
Опубликован Долгосрочный прогноз погоды по городам России и ближнего зарубежья на январь 2020 года.
Карты: Прогноз на январь и февраль 2020 года, Сравнение прогнозируемой аномалии приземной температуры воздуха на январь 2020 года по разным моделям.




Погода в Екибастузе - сегодня

Время (UTC), дата Ветер
(°,м/с) 
Видим.   Явления Облачность Т
(°С)
Тd
(°С)
f(%) Тe
(°С)
Pmin
(гПа)
dP
(гПа)
Po
(мм)
O2
(г/м3)
Тmin Tmax R s Состояние
почвы
12 21.10.21 230 (ЮЗ) 20000 м  в посл. час ливневой дождь  10/10 600 м кучево-дожд. 
[Cb cap]
+12 +4.1 58 +12  1008.8  738  284           
15 21.10.21 240 (ЮЗ) 10 км  слаб. ливневой дождь  10/10 600 м кучево-дожд. 
[Cb cap]
+7 +1.3 67 +5  1012  2.6  740  290    +16.3  0.0     
18 21.10.21 240 (ЮЗ) 10 км  {ливн. осадки}  10/10 600 м кучево-дожд. 
[Cb cap]
+5.4 -1.3 62 +4  1013.4  1.2  741  293    +16.3  0.0     
21 21.10.21 220 (ЮЗ) 10 км    8/8 600 м кучево-дожд. 
[Cb cap]
+2.2 -0.5 82 +1  1015.1  1.4  742  297           
00 22.10.21 240 (ЮЗ) 10 км    10/10 600 м кучево-дожд. 
[Cb cap]
+2.4 -2.5 70 1016.7  1.6  743  297           
06 22.10.21 230 (ЮЗ) 20000 м    9/8 600 м кучево-дожд., средняя 
[Cb cap|Ac trans]
+3.6 -2.4 65 +1  1021.9  2.7  747  297  +1.5    0.0     
09 22.10.21 240 (ЮЗ) 20000 м  {ливн. осадки}  9/9 600 м кучево-дожд. 
[Cb cap]
+4.7 -6.1 45 +2  1021.6  -0.3  747  296           
15 22.10.21 230 (ЮЗ) 10 км    10/6 600 м кучево-дожд., средняя 
[Cb cap|Ac trans]
+4.3 -5.1 50 +2  1022.8  0.3  748  297    +5.8  0.0     
18 22.10.21 220 (ЮЗ) 10-15{18}  10 км  {ливн. осадки}  10/10 600 м кучево-дожд. 
[Cb cap]
+3.2 -0.3 78 -1  1022.6  -0.3  747  298    +5.8  0.0     
21 22.10.21 240 (ЮЗ) 9{17}  10 км  {ливн. осадки}  10/10 600 м кучево-дожд. 
[Cb cap]
+3.8 -0.5 73 1022.2  -0.3  747  297           
00 23.10.21 220 (ЮЗ) 10-15{17}  10 км  {ливн. осадки}  10/10 600 м кучево-дожд. 
[Cb cap]
+4.2 +0 74 1021.5  -0.6  747  296           
06 23.10.21 240 (ЮЗ) 10-18{18}  20000 м  {ливн. осадки}  10/8 600 м кучево-дожд., средняя 
[Cb cap|Ac trans]
+6 +2.6 79 +3  1019.9  -0.5  746  294  +2.4    0.0     
09 23.10.21 230 (ЮЗ) 11-19{19}  20000 м    10/4 600 м кучево-дожд., средняя, верхняя 
[Cb cap|Ac trans|Ci fib]
+11.2 +2.4 55 +9  1018.4  -1  745  288           
15 23.10.21 230 (ЮЗ) 6{15}  10 км    10/4 600 м кучево-дожд., средняя, верхняя 
[Cb cap|Ac trans|Ci fib]
+9.8 +2.8 62 +8  1021  1.2  747  290    +11.7  0.8     
18 23.10.21 240 (ЮЗ) 10 км    10/0 средняя, верхняя 
[Ac trans|Cs]
+9.7 +4.6 70 +8  1021.8  0.7  747  290    +11.7  0.8     
21 23.10.21 240 (ЮЗ) 10 км    10/5 600 м кучево-дожд., средняя 
[Cb cap|Ac trans]
+9.3 +5.6 78 +8  1022.1  0.3  748  290           
00 24.10.21 230 (ЮЗ) 10 км    10/10 600 м кучево-дожд. 
[Cb cap]
+10.1 +5.8 75 +9  1022.9  0.8  748  290           
06 24.10.21 230 (ЮЗ) 20000 м    9/5 600 м кучево-дожд., средняя, верхняя 
[Cb cap|Ac trans|Ci fib]
+11.2 +4.8 65 +10  1024.3  0.3  749  289  +8.4         
09 24.10.21 250 (З) 20000 м    10/6 600 м кучево-дожд., средняя 
[Cb cap|Ac und]
+15.3 +4.7 49 +15  1023.1  -0.9  749  285           
15 24.10.21 240 (ЮЗ) 10 км    8/4 600 м кучево-дожд., средняя, верхняя 
[Cb cap|Ac trans|Ci fib]
+10.3 +3.2 61 +10  1024.4  0.5  749  290    +16.2       
18 24.10.21 230 (ЮЗ) 10 км    4/0 верхняя 
[Ci fib]
+7.3 +1.4 66 +6  1024.1  -0.5  749  294    +16.2       
21 24.10.21 210 (ЮЗ) 10 км    ясно 
+5.3 +0.7 72 +4  1023  -1.3  748  295           
00 25.10.21 200 (Ю) 10 км    ясно 
+4.4 +0.2 74 +3  1021.6  -1.4  747  296           
06 25.10.21 240 (ЮЗ) 20000 м    8/0 верхняя 
[Ci fib]
+12.2 -0.6 41 +11  1020.2  -0.5  746  288  +4         
09 25.10.21 230 (ЮЗ) 20000 м    8/0 верхняя 
[Ci fib]
+15.6 -1.6 31 +16  1018.3  -1.6  745  284           
Время (UTC), дата Ветер
(°,м/с) 
Видим.   Явления Облачность Т
(°С)
Тd
(°С)
f(%) Тe
(°С)
Pmin
(гПа)
dP
(гПа)
Po
(мм)
O2
(г/м3)
Тmin Tmax R s Состояние
почвы

Для получения пояснительной информации подведите курсор к названию столбца.

ПОГОДА в Екибастузе - архив

Всё, что Вы хотите узнать о погоде в Екибастузе - удобно и подробно!

Выберите нужную дату (начиная с 1 января 2019* года) и нажмите кнопку "Найти".
Будут отображены архивные сводки погоды по пункту Екибастуз, начиная с указанной даты.


Отображать данные в формате CSV (для использования в таблицах Excel)


Внимание! Наш архив погоды предназначен исключительно для личного некоммерческого использования в познавательных целях. Если Вам необходимы официальные справки о состоянии погоды (для производственных, юридических, коммерческих и т.п. целей), обращайтесь в органы Росгидромета.

*Примечание: данная дата относится к архиву по метеостанциям СССР (Россия, СНГ, Балтия).
Архив по метеостанциям Зарубежной Европы и Азии (кроме Китая) хранится 10 дней, по другим регионам земного шара (Китай, Африка, Америка, Австралия, Океания) - 1 день.

Екибастуз - район местоположения метеостанции


Название, широта, долгота, высота метеостанции:
Екибастуз (Экибастуз) 51.7°ш. 75.4°д. 234 м над ур. моря [Казахстан]

Дополнительная информация

В oтличие oт бoльшинства пoгoдных сайтoв мы публикуем пoдрoбную метеoинфoрмацию в детальнoм прoфессиoнальнoм фoрмате.

Характеристики температуры и влажнoсти вoздуха измеряются на высoте 2 м в тени вдали oт зданий и деревьев.
Скoрoсть ветра измеряется на высoте 10 м (на урoвне рoста челoвека скoрoсть ветра ниже в 1.5-2 раза). Если метеoстанция нахoдится в гoрoде или в лесу, тo скoрoсть ветра занижена на 2-4 м/с пo сравнению с oткрытым местoм. Скoрoсть ветра над акватoриями крупных рек и oзёр, а также на вершинах хoлмoв на 2-5 м/с выше, чем в oбычных услoвиях.
Атмoсфернoе давление в разных тoчках местнoсти мoжет значительнo oтличаться oт давления на метеoстанции, в зависимoсти oт услoвий рельефа (при пoдъёме на 10 м давление пoнижается примернo на 1 мм рт.ст.).